Regional Weather Roundup
Issued by NWS

Home | Current Version | Previous Version | Text Only | Print | Product List | Glossary On
Versions: 1 2 3 4 5 6 7 8 9 10 11 12 13 14 15 16 17 18 19 20 21 22 23 24 25 26 27 28 29 30 31 32 33 34 35 36 37 38 39 40 41 42 43 44 45 46 47 48 49 50
000
ASUS43 KLSX 020059
RWRMO

WEATHER SUMMARY FOR MISSOURI
NATIONAL WEATHER SERVICE SPRINGFIELD MO
800 PM CDT FRI AUG 01 2014

NOTE: "FAIR" INDICATES FEW OR NO CLOUDS BELOW 12,000 FEET WITH NO
       SIGNIFICANT WEATHER AND/OR OBSTRUCTIONS TO VISIBILITY.
       CURRENT SKY AND/OR WEATHER CONDITIONS ARE NOT AVAILABLE FOR
       CHILLICOTHE AND FARMINGTON.

MOZ001>031-035>038-043-044-053-054-020200-
...NORTHERN AND WESTERN MISSOURI...

CITY           SKY/WX    TMP DP  RH WIND       PRES   REMARKS
KANSAS CTY INT CLEAR     80  62  54 E10       30.05R
KANSAS C DTWN  CLEAR     81  62  52 E9        30.03S
LEE`S SUMMIT   CLEAR     78  63  59 E6        30.06R
ST JOSEPH      CLEAR     79  63  57 E6        30.04S
KIRKSVILLE     CLEAR     75  66  73 CALM      30.08R

$$
MOZ066>068-077>081-088>096-101>105-020200-
...SOUTHWEST MISSOURI...

CITY           SKY/WX    TMP DP  RH WIND       PRES   REMARKS
SPRINGFIELD    CLOUDY    78  63  59 W3        30.05S
JOPLIN         CLEAR     79  61  53 CALM      30.04S

$$
MOZ032>034-039>042-045>050-055>058-069>072-020200-
...CENTRAL MISSOURI...

CITY           SKY/WX    TMP DP  RH WIND       PRES   REMARKS
COLUMBIA       CLEAR     73  62  68 E5        30.06S
JEFFERSON CITY CLEAR     75  63  66 E5        30.04S
ROLLA          CLEAR     74  60  61 NE7       30.06S
SEDALIA        PTCLDY    78  62  57 NE3       30.06S
OSAGE BEACH      N/A     77  61  57 NE6       30.06R

$$
MOZ051-052-059>065-020200-
...EAST CENTRAL MISSOURI...

CITY           SKY/WX    TMP DP  RH WIND       PRES   REMARKS
ST LOUIS INTL  CLOUDY    74  65  73 E6        30.07S
SPIRIT OF STL  CLOUDY    71  68  90 CALM      30.05F FOG
ST CHARLES     CLOUDY    71  67  87 E7        30.06F

$$
MOZ072>076-082>087-097>100-106>115-020200-
...SOUTH CENTRAL AND SOUTHEAST MISSOURI...

CITY           SKY/WX    TMP DP  RH WIND       PRES   REMARKS
CAPE GIRARDEAU PTCLDY    77  69  76 CALM      30.03R
FARMINGTON     CLOUDY    72  63  73 E6        30.09F
POPLAR BLUFF   CLEAR     76  68  76 CALM      30.02S
WEST PLAINS    CLEAR     75  64  68 S3        30.07S

$$



USA.gov is the U.S. government's official web portal to all federal, state and local government web resources and services.